Regional Weather Roundup
Issued by NWS

Home | Current Version | Previous Version | Text Only | Print | Product List | Glossary On
Versions: 1 2 3 4 5 6 7 8 9 10 11 12 13 14 15 16 17 18 19 20 21 22 23 24 25 26 27 28 29 30 31 32 33 34 35 36 37 38 39 40 41 42 43 44 45 46 47 48 49 50
000
ASUS43 KOAX 032110
RWRNE

WEATHER ROUNDUP FOR NEBRASKA
NATIONAL WEATHER SERVICE OMAHA NE
400 PM CDT FRI JUL 03 2015

NOTES: SATELLITE DATA IS BEING USED TO AUGMENT CLOUD COVER ABOVE
       12000 FEET.
       "FAIR" INDICATES FEW OR NO CLOUDS BELOW 12,000 FEET WITH NO
       SIGNIFICANT WEATHER AND/OR OBSTRUCTIONS TO VISIBILITY.

  * THESE STATIONS DO NOT REPORT WEATHER SUCH AS RAIN...SNOW OR FOG.

NEZ001>004-019>022-054>056-032200-
NEBRASKA PANHANDLE

CITY           SKY/WX    TMP DP  RH WIND       PRES   REMARKS
SCOTTSBLUFF    SUNNY     84  54  35 MISG      30.05F
ALLIANCE       SUNNY     80  57  45 SE5       30.06F
CHADRON        SUNNY     83  53  35 CALM      30.02F
KIMBALL          N/A    N/A N/A N/A MISG        N/A
SIDNEY         MOSUNNY   83  56  39 NE7       30.09F
$$

NEZ057>060-069>072-079>082-032200-
SOUTHWEST NEBRASKA

CITY           SKY/WX    TMP DP  RH WIND       PRES   REMARKS
NORTH PLATTE   MOSUNNY   80  57  45 CALM      30.03S
IMPERIAL       SUNNY     86  53  32 VRB3      30.04F
LEXINGTON      MOSUNNY   81  61  51 NW3       30.02F
MCCOOK         SUNNY     83  60  45 MISG      30.01F
OGALLALA       MOSUNNY   83  55  39 E6        30.04F
$$

NEZ005>010-023>029-035>040-094-032200-
NORTH CENTRAL NEBRASKA

CITY           SKY/WX    TMP DP  RH WIND       PRES   REMARKS
VALENTINE      PTSUNNY   81  59  47 S7        30.01F
AINSWORTH      MOSUNNY   81  60  48 E5        30.02F
BROKEN BOW     MOSUNNY   81  61  50 SE5       30.01F
O`NEILL        SUNNY     78  64  60 NW6       30.01S
ORD            MOSUNNY   81  59  47 SE5       29.99F
THEDFORD       SUNNY     82  59  46 NE3       30.04S
$$

NEZ041-046>049-061>064-073>077-083>087-032200-
SOUTH CENTRAL NEBRASKA

CITY           SKY/WX    TMP DP  RH WIND       PRES   REMARKS
GRAND ISLAND   SUNNY     75  60  59 CALM      30.02F
AURORA         PTSUNNY   75  63  65 NE6       30.02S
HASTINGS       CLOUDY    76  61  59 CALM      30.02F
HEBRON         CLOUDY    76  60  57 NE3       30.00F
HOLDREGE       MOSUNNY   76  60  58 E6        30.02F
KEARNEY *      SUNNY     77  61  57 CALM      30.02F
YORK           CLOUDY    73  63  68 CALM      30.02F
$$

NEZ011>018-030>034-042>045-032200-
NORTHEAST NEBRASKA

CITY           SKY/WX    TMP DP  RH WIND       PRES   REMARKS
NORFOLK        MOSUNNY   77  63  61 VRB3      30.00F
ALBION         SUNNY     76  61  58 W3        30.01F
BLAIR          SUNNY     76  53  44 CALM      30.00S
COLUMBUS *     PTSUNNY   73  61  64 N5        30.03S
FREMONT        SUNNY     78  60  53 SW6       30.00S
TEKAMAH        SUNNY     80  55  42 SW5       29.98F
WAYNE          MOSUNNY   75  63  65 CALM      30.00S
$$

NEZ050>053-065>068-078-088>093-032200-
SOUTHEAST NEBRASKA

CITY           SKY/WX    TMP DP  RH WIND       PRES   REMARKS
LINCOLN        PTSUNNY   79  61  53 N7        29.99F
OMAHA EPPLEY   MOSUNNY   76  56  49 CALM      29.98F
BEATRICE       SUNNY     78  58  51 N3        29.99F
FALLS CITY     SUNNY     79  56  45 NE6       29.97F
NEBRASKA CITY  SUNNY     76  50  39 NE6       29.99F
PLATTSMOUTH    SUNNY     76  52  42 CALM      29.99F
$$

NEZ044-045-051>053-067-032200-
OMAHA AREA

CITY           SKY/WX    TMP DP  RH WIND       PRES   REMARKS
OMAHA EPPLEY   MOSUNNY   76  56  49 CALM      29.98F
BLAIR          SUNNY     76  53  44 CALM      30.00S
FREMONT        SUNNY     78  60  53 SW6       30.00S
MILLARD        SUNNY     78  51  40 CALM      29.98F
OFFUTT AFB     SUNNY     77  54  45 CALM      29.98S
PLATTSMOUTH    SUNNY     76  52  42 CALM      29.99F
WAHOO          FAIR      77  59  53 SW3       30.00S
$$



USA.gov is the U.S. government's official web portal to all federal, state and local government web resources and services.